Regional Weather Roundup
Issued by NWS Sterling, VA

Home | Current Version | Previous Version | Graphics & Text | Print | Product List | Glossary On
Versions: 1 2 3 4 5 6 7 8 9 10 11 12 13 14 15 16 17 18 19 20 21 22 23 24 25 26 27 28 29 30 31 32 33 34 35 36 37 38 39 40 41 42 43 44 45 46 47 48 49 50
421
ASUS41 KLWX 211310
RWRLWX

REGIONAL WEATHER ROUNDUP
NATIONAL WEATHER SERVICE BALTIMORE MD/WASHINGTON DC
800 AM EST WED FEB 21 2018

Note: "FAIR" indicates few or no clouds below 12,000 feet
with no significant weather and/or obstructions to visibility.
 TC=TEMPERATURE CELSIUS

 * =Non NWS site. Station does not report precipitation (e.g. rain,
    snow, etc.), thunder, or fog.

DCZ001-MDZ009-015-VAZ040>042-051-053>054-211400-
WASHINGTON METRO

CITY           SKY/WX    TMP DP  RH WIND       PRES   REMARKS
WASHINGTON NAT FAIR      61  60  97 S16       30.34S
DULLES         PTSUNNY   61  60  97 S12       30.34R
ANDREWS AFB    SUNNY     63  61  92 SW15      30.34R
FT BELVOIR     FAIR      62  59  90 S5        30.36R
QUANTICO       PTSUNNY   64  62  93 SW10G20   30.38R
COLLEGE PARK*  FAIR      62  59  87 SW7       30.34R
LEESBURG*      FAIR      61  59  94 S9G16     30.33S
MANASSAS*      FAIR      63  59  87 S10       30.35R
GAITHERSBURG*  FAIR      64  59  83 VRB6      30.34R

$$

MDZ006>007-011-014-211400-
BALTIMORE METRO

CITY           SKY/WX    TMP DP  RH WIND       PRES   REMARKS
BWI AIRPORT    FAIR      63  61  93 SW9       30.32R
MD SCIENCE CTR   N/A     51  51 100 MISG      30.35R
ANNAPOLIS      FAIR      65  63  93 S9        30.34R
FORT MEADE*    FAIR      63  59  88 SW7       30.35R

$$

MDZ012-015-019>023-211400-
MARYLAND EASTERN SHORE

CITY           SKY/WX    TMP DP  RH WIND       PRES   REMARKS
OCEAN CITY     CLOUDY    55  55 100 SW8       30.42R
SALISBURY      CLOUDY    65  63  93 SW15G22   30.40R
BAY BRIDGE AP* FAIR      61  59  94 S9        30.35R
CAMBRIDGE*     CLOUDY    63  61  94 S8        30.38S
EASTON*        CLOUDY    64  61  88 SW14      30.40R

$$

MDZ017>025-211400-
SOUTHERN MARYLAND

CITY           SKY/WX    TMP DP  RH WIND       PRES   REMARKS
PATUXENT RIVER PTSUNNY   65  63  93 SW10      30.39R
ST INIGOES     CLOUDY    62  60  93 SW3       30.39R
LEONARDTOWN*   CLOUDY    63  61  94 SW9       30.41R

$$

MDZ003>005-211400-
NORTH CENTRAL MARYLAND

CITY           SKY/WX    TMP DP  RH WIND       PRES   REMARKS
FREDERICK*     SUNNY     54  54 100 CALM      30.34R
HAGERSTOWN APT FAIR      62  54  74 S9        30.29R
WESTMINSTER*   FAIR      61  59  94 S6        30.31S

$$

MDZ501>502-211400-
WESTERN MARYLAND

CITY           SKY/WX    TMP DP  RH WIND       PRES   REMARKS
OAKLAND*       FAIR      61  48  63 SW13G18   30.30S
CUMBERLAND*    FAIR      50  50 100 CALM      30.33R

$$

VAZ025>031-211400-
SHENANDOAH VALLEY

CITY           SKY/WX    TMP DP  RH WIND       PRES   REMARKS
WINCHESTER*    FAIR      59  52  77 SW9       30.33R
FRONT ROYAL*   FAIR      64  55  72 SW9       30.31R
LURAY*         FAIR      63  55  77 SW14G20   30.34R
NEW MARKET*    FAIR      57  54  88 SW10      30.34R
STAUNTON*      FAIR      50  49  97 CALM      30.39R
WAYNESBORO*    FAIR      58  56  92 CALM      30.38R

$$

WVZ021-048>050-054>055-211400-
EASTERN WEST VIRGINIA PANHANDLE

CITY           SKY/WX    TMP DP  RH WIND       PRES   REMARKS
MARTINSBURG    FAIR      59  53  80 S6        30.29R
PETERSBURG*    FAIR      63  53  70 S13G20    30.30R

$$

VAZ036>039-050-211400-
CENTRAL FOOTHILLS

CITY           SKY/WX    TMP DP  RH WIND       PRES   REMARKS
CHARLOTTESVILL FAIR      61  58  90 S13       30.38R
CULPEPER*      FAIR      62  58  87 SW10G16   30.37R
ORANGE*        CLOUDY    59  57  94 SW8       30.39R
GORDONSVILLE*  CLOUDY    59  59 100 SW6       30.39R
WARRENTON*     FAIR      63  57  79 S9G17     30.36R

$$

VAZ055>057-211400-
NORTH AND CENTRAL PIEDMONT

CITY           SKY/WX    TMP DP  RH WIND       PRES   REMARKS
FREDERICKSBRG* CLOUDY    65  65 100 SW13G22   30.38R
STAFFORD*      CLOUDY    64  64 100 SW12      30.42R

$$

NCZ024-NYZ072-PAZ021-071-VAZ022-071-211400-
OTHER REGIONAL OBSERVATIONS

CITY           SKY/WX    TMP DP  RH WIND       PRES   REMARKS
NEW YORK CITY  CLOUDY    63  58  83 W10G17    30.32R
PHILADELPHIA   CLOUDY    61  59  93 SW18G25   30.33R
PITTSBURGH     CLOUDY    68  52  56 SW15G24   30.19R
ROANOKE        PTSUNNY   58  55  90 CALM      30.42S
RICHMOND       CLOUDY    65  62  90 SW9       30.43R
RALEIGH        CLOUDY    65  64  97 SW9       30.47S

$$

ANZ530>537-211400-
MARINE OBSERVATIONS

STATION/POSITION TIME  TEMP    WIND        PRES
                       AIR SEA DIR/SP/G
                 (UTC) (F)     (DEG/KT/KT) (MB)
THOMAS PT LIGHT  1300   56 40  220/ 14/ 15   N/A
BALT KEY BRIDGE  1224   49      90/  1/  2 1026.9
COVE POINT       1224   64     230/ 14/ 19 1029.1
LEWISETTA        1224   65 49  240/ 13/ 17 1029.2
SOLOMONS ISLAND  1224   61 42  220/  9/ 11 1028.6
PINEY POINT      1224          240/ 11/ 14   N/A

$$





USA.gov is the U.S. government's official web portal to all federal, state and local government web resources and services.